Theta_e
310 310 309 309 309 309 309 309 309 309 309 309 309 309 310 310 309 310 311 311 312 315 314 313 315 315 316 318 316 315 320 320 319 318 317 317 317 314 314 316 315 316 317 318 312
311 311 310 310 310 310 310 309 309 309 309 309 309 309 310 310 310 314 311 310 313 313 314 315 316 316 318 319 319 320 320 319 317 316 316 317 316 317 316 318 318 316 316 314 311
312 312 312 312 312 311 311 311 310 309 309 309 309 309 309 310 313 311 315 312 312 314 314 313 315 316 318 318 320 320 320 319 316 315 314 316 316 315 317 318 318 318 318 317 313
314 314 314 314 314 314 313 314 313 312 311 310 309 308 307 310 313 309 315 311 312 314 313 314 316 317 319 319 318 319 319 318 318 315 316 317 316 317 317 318 317 317 317 316 315
315 315 315 316 316 316 316 315 314 313 313 313 312 310 307 311 313 310 312 313 313 313 314 316 316 317 318 317 316 318 318 318 317 316 316 316 317 317 317 317 317 316 315 314 315
315 316 316 317 317 318 318 317 315 314 313 313 312 310 309 309 310 310 311 314 314 313 314 314 316 316 316 316 316 316 316 316 315 315 315 315 316 314 315 315 315 314 314 315 313
317 318 319 319 320 320 319 317 316 317 313 311 311 310 310 311 309 310 312 314 314 313 313 312 312 315 315 315 313 314 315 315 315 314 314 313 315 315 315 314 314 314 315 314 314
319 320 321 321 321 321 320 317 317 312 310 309 310 309 312 307 307 308 312 312 313 312 311 311 311 314 314 313 313 314 313 315 315 312 312 314 315 315 315 312 313 314 314 314 314
320 321 322 322 323 322 320 318 312 312 310 309 311 308 312 307 309 309 310 310 310 310 310 309 312 313 313 314 315 314 315 315 314 313 312 314 314 314 313 313 313 313 313 314 314
321 322 323 323 323 323 319 316 310 313 313 311 309 310 310 310 309 309 309 309 310 311 312 313 313 314 313 314 316 316 315 314 313 314 313 313 313 312 312 312 312 312 313 313 314
323 324 324 323 323 323 319 311 318 316 312 318 318 312 310 308 309 308 308 309 310 312 314 313 314 315 315 314 315 313 313 314 314 313 312 313 313 313 312 312 313 312 313 313 313
325 323 323 323 324 321 317 313 310 309 317 312 310 309 307 309 311 309 308 312 312 314 311 312 314 315 314 311 312 313 314 314 314 313 310 313 313 312 313 313 313 314 313 313 312
325 323 322 322 321 318 313 311 308 307 314 315 309 309 309 309 312 310 309 310 312 312 312 315 315 312 311 313 313 314 313 314 314 313 311 311 314 313 314 314 313 311 312 310 310
324 323 322 320 319 319 313 312 308 307 321 319 311 308 307 308 309 304 305 309 311 313 312 313 311 310 311 312 313 314 314 312 312 312 315 311 317 317 316 315 314 313 312 311 311
321 320 320 319 320 319 316 312 309 307 328 316 308 307 307 308 307 306 303 308 312 312 311 314 311 310 312 313 311 314 309 310 310 312 312 314 314 319 312 313 314 312 311 309 308
318 319 319 319 319 318 317 313 310 324 328 320 308 310 309 307 307 306 307 306 306 309 309 311 306 309 311 308 309 308 310 310 310 311 317 317 316 318 316 313 313 311 307 307 305
315 316 317 318 318 316 315 316 324 326 319 321 313 308 308 308 308 307 309 310 312 314 316 311 310 308 307 309 308 309 311 321 325 324 325 311 314 314 314 310 309 307 306 304 303
310 311 315 316 318 317 317 322 325 321 322 317 316 312 320 313 312 309 309 315 309 308 313 318 321 310 308 312 317 312 314 323 327 327 326 317 319 318 315 309 307 306 305 303 302
306 306 308 309 315 316 320 318 317 319 318 319 319 320 319 316 315 313 313 316 313 310 317 320 319 308 306 307 310 312 313 313 318 320 320 317 316 316 313 309 308 307 305 302 300
303 309 310 309 314 314 317 315 314 316 317 319 320 320 319 319 318 315 317 311 311 307 307 313 319 315 311 306 307 309 312 317 313 318 321 317 317 318 313 310 308 306 303 299 298
302 307 306 311 313 314 315 314 313 314 316 318 318 319 318 319 319 319 318 316 315 313 308 314 317 317 314 313 314 312 310 309 310 314 322 322 318 313 311 309 307 302 298 297 296
306 305 308 313 314 314 314 312 310 312 313 315 315 316 317 316 315 315 315 315 313 313 315 314 316 318 315 314 311 310 314 314 317 318 315 317 318 310 307 305 301 297 296 295 294
306 305 308 311 311 313 312 311 311 312 312 312 313 314 313 313 314 312 312 312 312 314 315 315 316 319 318 315 312 315 315 313 315 316 318 320 319 307 302 300 297 296 295 294 293
302 303 304 309 309 309 310 309 310 308 310 311 312 312 312 311 310 311 310 311 310 311 310 310 313 315 314 313 313 316 315 314 313 317 316 316 316 312 311 307 299 296 294 293 291
299 300 301 308 308 309 308 306 306 307 307 307 308 310 308 308 308 309 308 308 308 307 307 309 312 310 310 310 310 312 310 309 309 308 309 307 307 306 304 302 296 293 294 293 290
298 299 298 300 301 304 305 305 304 303 304 304 305 304 303 304 305 307 305 305 304 304 305 306 308 307 308 307 307 308 306 306 305 305 304 303 304 302 295 293 292 291 291 293 291
292 294 297 296 298 301 301 303 301 301 300 299 299 300 300 301 299 298 298 298 300 301 301 302 303 304 304 303 303 304 302 302 302 302 301 301 301 294 292 292 292 292 291 292 291
Wind_Speed
7 7 7 8 8 8 8 8 8 9 9 9 9 10 11 14 16 8 6 5 5 12 10 13 6 4 2 3 1 1 4 5 4 5 2 3 4 4 3 8 4 7 9 10 4
7 8 9 9 9 10 10 10 10 11 11 10 10 11 12 15 14 9 8 6 7 16 14 14 8 7 3 3 3 5 4 5 4 5 6 5 6 6 6 13 16 13 17 17 7
7 8 10 10 11 11 12 12 12 13 14 13 12 11 10 12 6 2 2 8 9 16 11 9 9 5 5 3 6 4 7 6 7 11 7 8 8 4 9 15 15 14 13 10 12
6 8 9 10 12 12 12 14 14 15 15 15 14 12 8 4 6 1 2 9 13 16 12 9 7 5 5 7 5 6 11 9 5 4 3 7 5 9 14 26 22 20 16 14 15
6 7 9 10 12 13 14 15 16 15 15 14 13 11 3 2 7 5 5 8 14 16 12 8 7 5 6 5 4 9 10 10 12 9 10 11 20 16 21 24 24 19 16 17 16
5 6 8 10 12 13 15 16 17 17 16 14 11 7 2 7 6 7 6 10 11 14 10 9 6 6 3 6 8 1 7 12 10 14 13 11 23 4 13 11 15 13 17 15 14
3 5 7 9 11 13 15 16 19 18 15 13 10 4 3 12 5 6 7 7 11 13 5 6 4 5 3 5 3 4 11 16 15 11 8 9 12 15 20 8 15 20 16 13 13
3 5 8 10 13 15 18 19 21 12 10 8 5 6 6 4 4 7 8 3 7 10 6 4 7 2 4 1 2 6 4 10 8 4 3 8 19 21 13 8 13 18 21 21 26
3 5 8 11 14 16 17 19 9 7 8 7 3 3 5 1 1 3 8 5 8 6 4 7 4 3 3 7 8 7 12 13 13 5 3 11 12 14 10 15 26 24 23 22 20
4 6 9 12 14 18 17 13 3 3 4 6 4 3 3 1 2 3 6 12 4 9 5 3 3 6 4 7 12 15 12 11 11 10 9 17 21 20 24 23 25 26 25 19 17
7 8 10 11 12 16 15 3 2 1 1 3 7 6 4 0 3 2 4 6 5 3 8 5 7 11 18 19 20 13 17 21 21 18 16 22 22 19 21 23 25 24 18 15 11
9 9 11 11 11 11 7 4 3 2 8 7 9 8 2 1 2 3 7 6 5 6 6 4 11 17 10 6 11 16 18 21 21 16 4 18 22 26 22 22 21 18 15 12 8
8 8 7 9 10 5 5 3 3 1 4 6 1 2 1 5 5 2 5 4 4 7 11 17 11 4 8 12 16 17 15 20 21 17 14 13 13 3 7 13 12 10 8 2 5
8 7 7 6 2 4 1 5 2 1 4 3 2 1 2 1 2 1 0 1 3 6 6 9 4 6 6 12 13 17 12 15 14 7 9 8 11 11 13 14 7 5 3 11 14
8 7 4 1 1 1 0 3 1 0 6 1 2 3 1 3 4 2 0 2 6 5 4 4 4 4 7 8 5 7 3 2 2 7 10 4 7 4 2 5 4 7 11 14 16
6 6 6 3 3 2 1 1 1 3 7 2 2 2 2 1 1 1 2 2 1 3 4 16 1 4 5 4 5 1 5 3 1 4 8 8 7 3 3 1 3 11 14 14 14
6 4 6 7 4 2 2 3 3 6 1 2 1 1 1 2 2 3 3 4 4 4 8 3 5 2 3 5 3 5 5 8 7 6 10 5 5 7 11 5 8 12 13 12 13
4 4 6 7 8 4 3 2 7 3 6 0 1 1 3 1 2 3 3 8 6 3 7 9 18 8 8 8 10 10 9 8 7 12 17 6 13 10 9 12 14 15 15 16 15
6 5 5 8 9 8 1 5 5 5 5 6 10 14 14 2 3 3 4 11 4 10 8 12 17 2 4 1 4 6 8 6 7 10 10 16 24 11 7 8 11 12 12 12 11
5 4 5 6 14 9 4 9 8 3 1 1 9 6 10 8 8 5 5 1 0 3 5 4 10 3 1 0 5 6 3 8 5 7 17 13 18 13 9 5 5 8 10 11 12
6 2 3 12 17 2 7 8 8 5 5 5 8 10 9 4 6 5 7 5 4 3 3 4 6 10 4 7 17 7 6 8 6 5 5 5 11 4 8 7 6 7 8 9 11
6 2 6 23 5 3 9 5 5 8 2 6 4 10 13 10 10 10 11 9 5 7 11 12 5 10 25 19 5 4 14 15 11 8 10 12 15 7 10 8 7 6 5 5 8
5 2 5 9 7 8 6 6 7 8 9 4 6 5 2 6 5 11 11 1 4 4 5 2 4 5 5 7 2 5 8 14 12 6 20 18 6 7 9 7 6 5 4 2 5
2 4 1 2 2 7 11 10 10 1 5 7 6 5 5 9 9 10 11 3 2 4 3 1 4 14 17 20 15 10 9 5 4 5 7 8 10 12 16 11 2 3 2 2 2
0 3 0 5 8 10 7 2 4 3 1 1 2 7 3 6 5 11 8 5 3 2 2 4 7 13 17 20 20 19 19 23 21 20 12 19 20 25 23 12 2 2 1 2 2
3 3 2 2 0 5 11 11 16 14 8 7 11 12 7 10 12 15 10 9 12 7 7 2 11 15 20 16 13 13 18 23 23 23 24 25 26 11 1 1 2 4 6 7 5
2 1 1 5 5 7 6 10 3 5 2 3 3 1 3 6 4 3 6 6 6 5 8 7 9 12 21 18 19 16 21 23 24 25 23 22 12 5 1 5 7 7 9 10 8
Wind_Direction
19 15 11 5 1 359 355 350 343 337 335 333 335 336 334 329 321 300 245 229 196 183 170 156 142 137 123 107 95 214 234 240 244 212 242 181 243 168 293 273 228 209 247 279 209
8 7 2 358 354 350 343 337 332 326 322 320 323 328 329 329 316 260 260 215 187 183 167 166 166 160 166 148 176 223 236 245 232 222 253 270 244 284 259 266 258 257 252 250 239
1 1 360 359 355 350 344 336 329 323 320 317 317 319 324 331 293 231 228 192 182 180 184 170 150 174 201 194 188 181 242 247 238 241 255 276 270 243 260 270 263 275 289 279 239
2 4 4 1 357 353 346 338 332 322 319 318 318 318 325 335 302 193 185 173 180 179 158 145 158 184 217 220 185 234 244 241 261 215 220 264 290 260 246 263 277 284 287 279 265
359 5 4 3 358 354 347 336 327 320 315 312 314 316 334 205 251 263 229 192 184 181 183 173 181 193 226 224 199 235 253 248 246 248 250 272 263 263 265 266 278 279 273 267 268
1 8 6 2 357 355 343 334 326 318 308 300 298 299 150 252 256 263 229 190 191 184 185 178 217 208 244 231 222 290 263 272 273 255 243 242 267 278 253 269 280 276 275 275 262
4 5 2 357 354 349 341 332 326 316 303 291 279 209 204 254 232 233 202 199 203 193 173 208 158 191 163 258 268 322 298 293 263 253 237 219 265 234 267 272 274 285 286 286 270
346 358 356 353 350 348 343 333 328 340 327 291 227 165 249 241 262 237 223 184 189 199 216 209 184 209 233 337 268 269 253 280 297 165 191 199 271 283 302 297 286 289 287 284 284
327 339 344 347 347 349 342 332 339 359 36 82 113 198 260 222 226 235 201 173 151 154 116 128 159 210 189 241 270 226 269 262 289 240 168 208 276 287 287 293 291 288 284 285 293
299 317 329 337 343 345 343 335 0 26 43 73 99 236 203 297 158 141 165 157 133 134 119 153 159 213 212 215 251 273 265 257 264 283 264 282 267 274 282 284 278 285 284 295 291
284 301 310 321 335 344 348 343 277 201 250 253 268 267 274 349 163 107 147 134 118 174 194 171 203 217 236 231 248 284 271 275 277 285 291 287 295 294 286 278 280 280 292 290 311
282 301 316 324 338 348 360 46 54 339 295 253 254 265 292 48 307 128 158 186 185 212 130 167 235 236 265 277 256 261 271 276 279 278 283 286 295 292 283 275 271 284 293 302 329
263 282 302 321 340 11 43 50 331 71 255 286 255 246 312 186 233 197 191 156 184 190 206 241 267 242 219 249 258 256 263 269 280 306 280 296 279 258 294 274 298 277 269 335 37
235 252 280 327 357 352 66 347 356 347 273 247 196 135 156 158 197 301 110 183 184 263 229 254 301 237 225 250 254 274 280 270 285 302 290 6 295 301 274 284 324 39 89 94 55
242 248 237 231 249 251 240 344 3 157 290 159 175 126 164 223 125 81 14 158 233 205 198 260 190 164 207 235 187 272 7 298 284 285 304 268 266 307 241 250 174 22 74 54 34
224 222 179 165 207 232 271 311 268 228 245 256 149 123 144 36 20 81 103 60 75 199 249 263 9 219 223 165 200 320 277 246 218 285 267 309 233 359 266 213 94 91 74 50 39
162 175 164 162 143 144 140 280 241 231 18 181 13 102 126 173 197 208 161 188 229 257 263 214 220 223 208 221 161 184 264 297 281 237 266 65 296 280 282 6 25 82 68 49 45
170 176 193 179 183 154 126 149 232 218 242 85 90 124 296 250 195 162 218 271 222 248 287 287 285 200 179 228 264 198 206 220 259 270 286 301 265 255 235 87 66 56 47 40 37
223 210 244 224 189 161 170 221 252 227 232 233 270 291 282 250 259 249 232 277 278 198 261 298 274 99 236 143 224 163 218 277 266 261 277 270 270 255 238 70 63 60 60 54 41
187 168 210 209 184 147 186 245 236 225 92 267 241 228 263 260 272 270 281 98 274 168 104 1 297 262 260 144 215 228 309 255 227 257 248 248 258 252 166 126 87 65 40 30 32
163 158 180 164 156 188 218 222 244 236 274 251 249 258 262 266 203 233 233 289 256 257 232 205 202 274 290 232 264 234 233 228 267 258 261 252 242 292 150 127 104 48 35 23 22
149 192 158 162 176 194 227 207 222 256 280 258 267 250 256 272 274 266 256 244 299 300 277 262 259 250 271 283 281 281 264 257 248 243 227 249 255 96 114 129 118 101 60 33 26
160 126 183 187 203 210 215 235 245 226 234 228 244 222 224 257 272 255 258 214 318 276 282 36 266 275 273 240 141 221 260 255 272 296 252 250 242 116 124 127 123 128 125 97 358
149 143 205 238 242 223 229 250 236 129 236 219 244 241 247 255 249 270 273 305 33 339 96 74 247 250 262 272 304 275 258 286 267 264 308 272 292 286 275 289 111 150 118 117 15
135 196 330 186 223 224 208 211 216 230 292 270 238 234 277 262 288 252 270 307 257 32 283 225 257 266 272 269 273 262 263 266 265 271 269 283 283 282 290 316 293 354 239 246 295
152 162 117 156 129 180 221 239 250 249 250 244 262 269 284 258 259 287 292 265 271 282 279 261 270 280 270 272 259 264 264 263 266 268 264 265 268 294 59 2 279 317 320 275 293
140 108 137 148 163 180 204 221 176 164 126 86 95 350 231 257 176 252 240 264 247 261 270 268 276 271 269 276 285 267 248 261 266 265 268 272 290 60 12 307 303 300 306 291 287